contact:dominique.lefevre@mio.osupytheas.fr, maurice.libes@osupytheas.fr, didier.mallarino@osupytheas.fr
Project:EMSO http://www.emso-fr.org/EMSO-France
Depth: 2436.0 m
Title:EMSO Ligure Ouest : Data MII capteur CSTAR
DateTime,Latitude,Longitude,Instrument_Serial,Reference_Counts,Signal_Counts,Corrected_Signal_raw_counts,Calculated_Beam_c_inverse_meters,Internal_thermistor_counts
DateTime,Latitude,Longitude,Instrument_Serial,Reference_Counts,Signal_Counts,Corrected_Signal_raw_counts,Calculated_Beam_c_inverse_meters,Internal_thermistor_counts
2022-08-10T00:02:14,42.805,6.029,CST-1368DR,4622,5141,11845,01.106,551
2022-08-10T00:05:16,42.805,6.029,CST-1368DR,4622,5143,11849,01.104,551
2022-08-10T00:08:17,42.805,6.029,CST-1368DR,4622,5141,11844,01.106,551
2022-08-10T00:11:19,42.805,6.029,CST-1368DR,4622,5143,11849,01.104,551
2022-08-10T00:14:20,42.805,6.029,CST-1368DR,4622,5142,11848,01.105,551
2022-08-10T00:17:22,42.805,6.029,CST-1368DR,4622,5142,11848,01.105,551
2022-08-10T00:20:23,42.805,6.029,CST-1368DR,4622,5142,11848,01.105,551
2022-08-10T00:23:25,42.805,6.029,CST-1368DR,4622,5142,11847,01.105,551
2022-08-10T00:26:27,42.805,6.029,CST-1368DR,4622,5143,11849,01.104,551
2022-08-10T00:29:28,42.805,6.029,CST-1368DR,4622,5141,11845,01.106,551
2022-08-10T00:32:30,42.805,6.029,CST-1368DR,4622,5143,11850,01.104,551
2022-08-10T00:35:31,42.805,6.029,CST-1368DR,4622,5142,11846,01.105,550
2022-08-10T00:38:33,42.805,6.029,CST-1368DR,4622,5142,11847,01.105,551
2022-08-10T00:41:35,42.805,6.029,CST-1368DR,4622,5141,11844,01.106,551
2022-08-10T00:44:36,42.805,6.029,CST-1368DR,4622,5141,11846,01.105,551
2022-08-10T00:47:38,42.805,6.029,CST-1368DR,4622,5141,11845,01.106,551
2022-08-10T00:50:39,42.805,6.029,CST-1368DR,4622,5140,11843,01.106,551
2022-08-10T00:53:41,42.805,6.029,CST-1368DR,4622,5141,11844,01.106,551
2022-08-10T00:56:42,42.805,6.029,CST-1368DR,4622,5142,11847,01.105,551
2022-08-10T00:59:44,42.805,6.029,CST-1368DR,4622,5138,11838,01.108,551
2022-08-10T01:02:46,42.805,6.029,CST-1368DR,4622,5142,11846,01.105,551
2022-08-10T01:05:47,42.805,6.029,CST-1368DR,4622,5141,11846,01.105,551
2022-08-10T01:08:49,42.805,6.029,CST-1368DR,4622,5142,11846,01.105,551
2022-08-10T01:11:50,42.805,6.029,CST-1368DR,4622,5139,11841,01.107,551
2022-08-10T01:14:52,42.805,6.029,CST-1368DR,4622,5140,11844,01.106,551
2022-08-10T01:17:54,42.805,6.029,CST-1368DR,4622,5141,11846,01.105,551
2022-08-10T01:20:55,42.805,6.029,CST-1368DR,4622,5142,11847,01.105,551
2022-08-10T01:23:57,42.805,6.029,CST-1368DR,4622,5142,11846,01.105,551
2022-08-10T01:26:58,42.805,6.029,CST-1368DR,4622,5141,11844,01.106,551
2022-08-10T01:30:00,42.805,6.029,CST-1368DR,4622,5135,11831,01.110,551
2022-08-10T01:33:01,42.805,6.029,CST-1368DR,4622,5141,11845,01.106,551
2022-08-10T01:36:03,42.805,6.029,CST-1368DR,4622,5141,11846,01.105,551
2022-08-10T01:39:05,42.805,6.029,CST-1368DR,4622,5139,11841,01.107,551
2022-08-10T01:42:06,42.805,6.029,CST-1368DR,4622,5140,11844,01.106,551
2022-08-10T01:45:08,42.805,6.029,CST-1368DR,4622,5136,11833,01.110,551
2022-08-10T01:48:09,42.805,6.029,CST-1368DR,4622,5140,11844,01.106,551
2022-08-10T01:51:11,42.805,6.029,CST-1368DR,4622,5140,11844,01.106,551
2022-08-10T01:54:12,42.805,6.029,CST-1368DR,4622,5139,11840,01.107,551
2022-08-10T01:57:14,42.805,6.029,CST-1368DR,4622,5124,11807,01.118,551
2022-08-10T02:00:16,42.805,6.029,CST-1368DR,4622,5126,11810,01.117,551
2022-08-10T02:03:17,42.805,6.029,CST-1368DR,4622,5125,11808,01.118,551
2022-08-10T02:06:19,42.805,6.029,CST-1368DR,4622,5125,11807,01.118,551
2022-08-10T02:09:20,42.805,6.029,CST-1368DR,4622,5129,11816,01.115,551
2022-08-10T02:12:22,42.805,6.029,CST-1368DR,4622,5127,11812,01.117,551
2022-08-10T02:15:23,42.805,6.029,CST-1368DR,4622,5127,11812,01.117,551
2022-08-10T02:18:25,42.805,6.029,CST-1368DR,4622,5125,11807,01.118,551
2022-08-10T02:21:27,42.805,6.029,CST-1368DR,4622,5126,11810,01.117,551
2022-08-10T02:24:28,42.805,6.029,CST-1368DR,4622,5122,11801,01.120,551
2022-08-10T02:27:30,42.805,6.029,CST-1368DR,4622,5126,11810,01.117,551
2022-08-10T02:30:31,42.805,6.029,CST-1368DR,4622,5124,11805,01.119,551
2022-08-10T02:33:33,42.805,6.029,CST-1368DR,4622,5122,11801,01.120,551
2022-08-10T02:36:35,42.805,6.029,CST-1368DR,4622,5120,11797,01.122,551
2022-08-10T02:39:36,42.805,6.029,CST-1368DR,4622,5125,11809,01.118,551
2022-08-10T02:42:38,42.805,6.029,CST-1368DR,4622,5139,11841,01.107,551
2022-08-10T02:45:39,42.805,6.029,CST-1368DR,4622,5140,11842,01.107,551
2022-08-10T02:48:41,42.805,6.029,CST-1368DR,4622,5140,11842,01.107,551
2022-08-10T02:51:42,42.805,6.029,CST-1368DR,4622,5140,11842,01.107,551
2022-08-10T02:54:44,42.805,6.029,CST-1368DR,4622,5139,11841,01.107,551
2022-08-10T02:57:46,42.805,6.029,CST-1368DR,4622,5139,11841,01.107,551
2022-08-10T03:00:47,42.805,6.029,CST-1368DR,4622,5140,11843,01.106,551
2022-08-10T03:03:49,42.805,6.029,CST-1368DR,4622,5139,11840,01.107,551
2022-08-10T03:06:50,42.805,6.029,CST-1368DR,4622,5139,11839,01.108,551
2022-08-10T03:09:52,42.805,6.029,CST-1368DR,4622,5140,11843,01.106,551
2022-08-10T03:12:54,42.805,6.029,CST-1368DR,4622,5139,11841,01.107,551
2022-08-10T03:15:55,42.805,6.029,CST-1368DR,4622,5138,11839,01.108,551
2022-08-10T03:18:57,42.805,6.029,CST-1368DR,4622,5138,11838,01.108,551
2022-08-10T03:21:58,42.805,6.029,CST-1368DR,4622,5139,11841,01.107,551
2022-08-10T03:25:00,42.805,6.029,CST-1368DR,4622,5139,11841,01.107,551
2022-08-10T03:28:01,42.805,6.029,CST-1368DR,4622,5112,11778,01.128,551
2022-08-10T03:31:03,42.805,6.029,CST-1368DR,4622,5120,11797,01.122,551
2022-08-10T03:34:05,42.805,6.029,CST-1368DR,4622,5125,11808,01.118,551
2022-08-10T03:37:06,42.805,6.029,CST-1368DR,4622,5125,11807,01.118,551
2022-08-10T03:40:08,42.805,6.029,CST-1368DR,4622,5125,11808,01.118,551
2022-08-10T03:43:09,42.805,6.029,CST-1368DR,4622,5128,11815,01.116,551
2022-08-10T03:46:11,42.805,6.029,CST-1368DR,4622,5124,11805,01.119,551
2022-08-10T03:49:12,42.805,6.029,CST-1368DR,4622,5124,11805,01.119,551
2022-08-10T03:52:14,42.805,6.029,CST-1368DR,4622,5124,11805,01.119,551
2022-08-10T03:55:16,42.805,6.029,CST-1368DR,4622,5128,11814,01.116,551
2022-08-10T03:58:17,42.805,6.029,CST-1368DR,4622,5126,11810,01.117,551
2022-08-10T04:01:19,42.805,6.029,CST-1368DR,4622,5127,11812,01.117,551
2022-08-10T04:04:20,42.805,6.029,CST-1368DR,4622,5127,11813,01.116,551
2022-08-10T04:07:22,42.805,6.029,CST-1368DR,4622,5128,11815,01.116,551
2022-08-10T04:10:24,42.805,6.029,CST-1368DR,4622,5127,11813,01.116,551
2022-08-10T04:13:25,42.805,6.029,CST-1368DR,4622,5129,11818,01.115,551
2022-08-10T04:16:27,42.805,6.029,CST-1368DR,4622,5128,11816,01.115,551
2022-08-10T04:19:28,42.805,6.029,CST-1368DR,4622,5128,11816,01.115,551
2022-08-10T04:22:30,42.805,6.029,CST-1368DR,4622,5129,11818,01.115,551
2022-08-10T04:25:31,42.805,6.029,CST-1368DR,4622,5129,11817,01.115,551
2022-08-10T04:28:33,42.805,6.029,CST-1368DR,4622,5130,11819,01.114,551
2022-08-10T04:31:35,42.805,6.029,CST-1368DR,4622,5130,11820,01.114,551
2022-08-10T04:34:36,42.805,6.029,CST-1368DR,4622,5131,11822,01.113,551
2022-08-10T04:37:38,42.805,6.029,CST-1368DR,4622,5132,11825,01.112,551
2022-08-10T04:40:39,42.805,6.029,CST-1368DR,4622,5131,11821,01.114,551
2022-08-10T04:43:41,42.805,6.029,CST-1368DR,4622,5132,11824,01.113,551
2022-08-10T04:46:42,42.805,6.029,CST-1368DR,4622,5134,11828,01.111,551
2022-08-10T04:49:44,42.805,6.029,CST-1368DR,4622,5131,11823,01.113,551
2022-08-10T04:52:46,42.805,6.029,CST-1368DR,4622,5131,11821,01.114,551
2022-08-10T04:55:47,42.805,6.029,CST-1368DR,4622,5131,11821,01.114,551
2022-08-10T04:58:49,42.805,6.029,CST-1368DR,4622,5132,11823,01.113,551
2022-08-10T05:01:50,42.805,6.029,CST-1368DR,4622,5133,11826,01.112,551
2022-08-10T05:04:52,42.805,6.029,CST-1368DR,4622,5134,11829,01.111,551
2022-08-10T05:07:54,42.805,6.029,CST-1368DR,4622,5135,11831,01.110,551
2022-08-10T05:10:55,42.805,6.029,CST-1368DR,4622,5135,11831,01.110,551
2022-08-10T05:13:57,42.805,6.029,CST-1368DR,4622,5136,11834,01.109,551
2022-08-10T05:16:58,42.805,6.029,CST-1368DR,4622,5133,11827,01.112,550
2022-08-10T05:20:00,42.805,6.029,CST-1368DR,4622,5136,11833,01.110,551
2022-08-10T05:23:01,42.805,6.029,CST-1368DR,4622,5140,11842,01.107,551
2022-08-10T05:26:03,42.805,6.029,CST-1368DR,4622,5139,11840,01.107,551
2022-08-10T05:29:05,42.805,6.029,CST-1368DR,4622,5138,11837,01.108,551
2022-08-10T05:32:06,42.805,6.029,CST-1368DR,4622,5138,11837,01.108,551
2022-08-10T05:35:08,42.805,6.029,CST-1368DR,4622,5138,11838,01.108,551
2022-08-10T05:38:09,42.805,6.029,CST-1368DR,4622,5137,11836,01.109,551
2022-08-10T05:41:11,42.805,6.029,CST-1368DR,4622,5138,11838,01.108,551
2022-08-10T05:44:12,42.805,6.029,CST-1368DR,4622,5137,11835,01.109,551
2022-08-10T05:47:14,42.805,6.029,CST-1368DR,4622,5138,11839,01.108,551
2022-08-10T05:50:16,42.805,6.029,CST-1368DR,4622,5138,11838,01.108,551
2022-08-10T05:53:17,42.805,6.029,CST-1368DR,4622,5137,11836,01.109,551
2022-08-10T05:56:19,42.805,6.029,CST-1368DR,4622,5138,11837,01.108,551
2022-08-10T05:59:20,42.805,6.029,CST-1368DR,4622,5138,11838,01.108,551
2022-08-10T06:02:22,42.805,6.029,CST-1368DR,4622,5136,11833,01.110,551
2022-08-10T06:05:24,42.805,6.029,CST-1368DR,4622,5138,11837,01.108,551
2022-08-10T06:08:25,42.805,6.029,CST-1368DR,4622,5138,11837,01.108,551
2022-08-10T06:11:27,42.805,6.029,CST-1368DR,4622,5138,11837,01.108,551
2022-08-10T06:14:28,42.805,6.029,CST-1368DR,4622,5136,11834,01.109,551
2022-08-10T06:17:30,42.805,6.029,CST-1368DR,4622,5137,11835,01.109,551
2022-08-10T06:20:31,42.805,6.029,CST-1368DR,4622,5137,11835,01.109,551
2022-08-10T06:23:33,42.805,6.029,CST-1368DR,4622,5137,11836,01.109,551
2022-08-10T06:26:35,42.805,6.029,CST-1368DR,4622,5138,11838,01.108,551
2022-08-10T06:29:36,42.805,6.029,CST-1368DR,4622,5138,11837,01.108,551
2022-08-10T06:32:38,42.805,6.029,CST-1368DR,4622,5138,11839,01.108,551
2022-08-10T06:35:39,42.805,6.029,CST-1368DR,4622,5101,11752,01.137,551
2022-08-10T06:38:41,42.805,6.029,CST-1368DR,4622,5136,11834,01.109,551
2022-08-10T06:41:42,42.805,6.029,CST-1368DR,4622,5137,11835,01.109,551
2022-08-10T06:44:44,42.805,6.029,CST-1368DR,4622,5137,11837,01.108,551
2022-08-10T06:47:46,42.805,6.029,CST-1368DR,4622,5137,11835,01.109,551
2022-08-10T06:50:47,42.805,6.029,CST-1368DR,4622,5137,11836,01.109,551
2022-08-10T06:53:49,42.805,6.029,CST-1368DR,4622,5137,11835,01.109,551
2022-08-10T06:56:50,42.805,6.029,CST-1368DR,4622,5136,11833,01.110,551
2022-08-10T06:59:52,42.805,6.029,CST-1368DR,4622,5136,11833,01.110,551
2022-08-10T07:02:54,42.805,6.029,CST-1368DR,4622,5137,11835,01.109,551
2022-08-10T07:05:55,42.805,6.029,CST-1368DR,4622,5137,11836,01.109,551
2022-08-10T07:08:57,42.805,6.029,CST-1368DR,4622,5135,11832,01.110,551
2022-08-10T07:11:58,42.805,6.029,CST-1368DR,4622,5134,11829,01.111,551
2022-08-10T07:15:00,42.805,6.029,CST-1368DR,4622,5136,11833,01.110,551
2022-08-10T07:18:01,42.805,6.029,CST-1368DR,4622,5137,11836,01.109,551
2022-08-10T07:21:03,42.805,6.029,CST-1368DR,4622,5136,11833,01.110,551
2022-08-10T07:24:05,42.805,6.029,CST-1368DR,4622,5132,11825,01.112,551
2022-08-10T07:27:06,42.805,6.029,CST-1368DR,4622,5134,11828,01.111,551
2022-08-10T07:30:08,42.805,6.029,CST-1368DR,4622,5132,11824,01.113,551
2022-08-10T07:33:09,42.805,6.029,CST-1368DR,4622,5131,11822,01.113,551
2022-08-10T07:36:11,42.805,6.029,CST-1368DR,4622,5132,11825,01.112,551
2022-08-10T07:39:13,42.805,6.029,CST-1368DR,4622,5132,11825,01.112,551
2022-08-10T07:42:14,42.805,6.029,CST-1368DR,4622,5131,11821,01.114,551
2022-08-10T07:45:16,42.805,6.029,CST-1368DR,4622,5131,11822,01.113,551
2022-08-10T07:48:17,42.805,6.029,CST-1368DR,4622,5131,11823,01.113,551
2022-08-10T07:51:19,42.805,6.029,CST-1368DR,4622,5133,11826,01.112,551
2022-08-10T07:54:20,42.805,6.029,CST-1368DR,4622,5135,11832,01.110,551
2022-08-10T07:57:22,42.805,6.029,CST-1368DR,4622,5137,11836,01.109,551
2022-08-10T08:00:24,42.805,6.029,CST-1368DR,4622,5136,11834,01.109,551
2022-08-10T08:03:25,42.805,6.029,CST-1368DR,4622,5134,11829,01.111,551
2022-08-10T08:06:27,42.805,6.029,CST-1368DR,4622,5132,11824,01.113,551
2022-08-10T08:09:28,42.805,6.029,CST-1368DR,4622,5131,11822,01.113,551
2022-08-10T08:12:30,42.805,6.029,CST-1368DR,4622,5131,11823,01.113,551
2022-08-10T08:15:31,42.805,6.029,CST-1368DR,4622,5131,11821,01.114,551
2022-08-10T08:18:33,42.805,6.029,CST-1368DR,4622,5132,11824,01.113,551
2022-08-10T08:21:35,42.805,6.029,CST-1368DR,4622,5130,11820,01.114,551
2022-08-10T08:24:36,42.805,6.029,CST-1368DR,4622,5133,11826,01.112,551
2022-08-10T08:27:38,42.805,6.029,CST-1368DR,4622,5130,11819,01.114,551
2022-08-10T08:30:39,42.805,6.029,CST-1368DR,4622,5130,11820,01.114,551
2022-08-10T08:33:41,42.805,6.029,CST-1368DR,4622,5129,11818,01.115,551
2022-08-10T08:36:43,42.805,6.029,CST-1368DR,4622,5132,11823,01.113,551
2022-08-10T08:39:44,42.805,6.029,CST-1368DR,4622,5128,11815,01.116,551
2022-08-10T08:42:46,42.805,6.029,CST-1368DR,4622,5128,11816,01.115,551
2022-08-10T08:45:47,42.805,6.029,CST-1368DR,4622,5130,11819,01.114,551
2022-08-10T08:48:49,42.805,6.029,CST-1368DR,4622,5128,11815,01.116,551
2022-08-10T08:51:50,42.805,6.029,CST-1368DR,4622,5122,11801,01.120,551
2022-08-10T08:54:52,42.805,6.029,CST-1368DR,4622,5127,11812,01.117,551
2022-08-10T08:57:54,42.805,6.029,CST-1368DR,4622,5127,11812,01.117,551
2022-08-10T09:00:55,42.805,6.029,CST-1368DR,4622,5121,11798,01.121,551
2022-08-10T09:03:57,42.805,6.029,CST-1368DR,4622,5121,11798,01.121,551
2022-08-10T09:06:58,42.805,6.029,CST-1368DR,4621,5122,11803,01.120,551
2022-08-10T09:10:00,42.805,6.029,CST-1368DR,4621,5123,11806,01.119,551
2022-08-10T09:13:01,42.805,6.029,CST-1368DR,4622,5131,11821,01.114,551
2022-08-10T09:16:03,42.805,6.029,CST-1368DR,4622,5133,11827,01.112,551
2022-08-10T09:19:05,42.805,6.029,CST-1368DR,4621,5130,11822,01.113,551
2022-08-10T09:22:06,42.805,6.029,CST-1368DR,4621,5129,11819,01.114,551
2022-08-10T09:25:08,42.805,6.029,CST-1368DR,4622,5128,11816,01.115,551
2022-08-10T09:28:09,42.805,6.029,CST-1368DR,4622,5130,11819,01.114,551
2022-08-10T09:31:11,42.805,6.029,CST-1368DR,4622,5133,11827,01.112,551
2022-08-10T09:34:13,42.805,6.029,CST-1368DR,4621,5117,11792,01.123,551
2022-08-10T09:37:14,42.805,6.029,CST-1368DR,4621,5118,11794,01.123,551
2022-08-10T09:40:16,42.805,6.029,CST-1368DR,4621,5122,11803,01.120,551
2022-08-10T09:43:17,42.805,6.029,CST-1368DR,4621,5118,11795,01.122,551
2022-08-10T09:46:19,42.805,6.029,CST-1368DR,4621,5114,11784,01.126,551
2022-08-10T09:49:20,42.805,6.029,CST-1368DR,4621,5113,11784,01.126,551
2022-08-10T09:52:22,42.805,6.029,CST-1368DR,4621,5116,11790,01.124,551
2022-08-10T09:55:24,42.805,6.029,CST-1368DR,4622,5118,11792,01.123,551
2022-08-10T09:58:25,42.805,6.029,CST-1368DR,4621,5113,11784,01.126,551
2022-08-10T10:01:27,42.805,6.029,CST-1368DR,4621,5118,11794,01.123,551
2022-08-10T10:04:28,42.805,6.029,CST-1368DR,4621,5115,11787,01.125,551
2022-08-10T10:07:30,42.805,6.029,CST-1368DR,4621,5115,11788,01.125,551
2022-08-10T10:10:31,42.805,6.029,CST-1368DR,4621,5115,11788,01.125,551
2022-08-10T10:13:33,42.805,6.029,CST-1368DR,4621,5115,11788,01.125,551
2022-08-10T10:16:35,42.805,6.029,CST-1368DR,4621,5117,11793,01.123,551
2022-08-10T10:19:36,42.805,6.029,CST-1368DR,4621,5113,11783,01.127,551
2022-08-10T10:22:38,42.805,6.029,CST-1368DR,4622,5114,11782,01.127,551
2022-08-10T10:25:39,42.805,6.029,CST-1368DR,4621,5113,11783,01.127,551
2022-08-10T10:28:41,42.805,6.029,CST-1368DR,4621,5112,11781,01.127,551
2022-08-10T10:31:43,42.805,6.029,CST-1368DR,4621,5111,11777,01.129,551
2022-08-10T10:34:44,42.805,6.029,CST-1368DR,4621,5111,11779,01.128,551
2022-08-10T10:37:46,42.805,6.029,CST-1368DR,4621,5110,11775,01.129,551
2022-08-10T10:40:47,42.805,6.029,CST-1368DR,4621,5111,11779,01.128,551
2022-08-10T10:43:49,42.805,6.029,CST-1368DR,4621,5115,11787,01.125,551
2022-08-10T10:46:50,42.805,6.029,CST-1368DR,4621,5111,11778,01.128,551
2022-08-10T10:49:52,42.805,6.029,CST-1368DR,4621,5112,11780,01.128,551
2022-08-10T10:52:54,42.805,6.029,CST-1368DR,4621,5114,11785,01.126,551
2022-08-10T10:55:55,42.805,6.029,CST-1368DR,4621,5111,11779,01.128,551
2022-08-10T10:58:57,42.805,6.029,CST-1368DR,4621,5111,11779,01.128,551
2022-08-10T11:01:58,42.805,6.029,CST-1368DR,4621,5108,11770,01.131,551
2022-08-10T11:05:00,42.805,6.029,CST-1368DR,4621,5114,11785,01.126,551
2022-08-10T11:08:01,42.805,6.029,CST-1368DR,4621,5111,11779,01.128,551
2022-08-10T11:11:03,42.805,6.029,CST-1368DR,4621,5110,11775,01.129,551
2022-08-10T11:14:05,42.805,6.029,CST-1368DR,4621,5108,11771,01.131,551
2022-08-10T11:17:06,42.805,6.029,CST-1368DR,4621,5110,11775,01.129,551
2022-08-10T11:20:08,42.805,6.029,CST-1368DR,4621,5112,11781,01.127,551
2022-08-10T11:23:09,42.805,6.029,CST-1368DR,4621,5107,11770,01.131,551
2022-08-10T11:26:11,42.805,6.029,CST-1368DR,4621,5112,11780,01.128,551
2022-08-10T11:29:13,42.805,6.029,CST-1368DR,4621,5109,11775,01.129,551
2022-08-10T11:32:14,42.805,6.029,CST-1368DR,4621,5108,11772,01.130,551
2022-08-10T11:35:16,42.805,6.029,CST-1368DR,4621,5103,11761,01.134,551
2022-08-10T11:38:17,42.805,6.029,CST-1368DR,4621,5109,11773,01.130,551
2022-08-10T11:41:19,42.805,6.029,CST-1368DR,4621,5104,11762,01.134,551
2022-08-10T11:44:20,42.805,6.029,CST-1368DR,4621,5104,11762,01.134,551
2022-08-10T11:47:22,42.805,6.029,CST-1368DR,4621,5108,11772,01.130,551
2022-08-10T11:50:24,42.805,6.029,CST-1368DR,4621,5105,11765,01.133,551
2022-08-10T11:53:25,42.805,6.029,CST-1368DR,4621,5107,11769,01.131,551
2022-08-10T11:56:27,42.805,6.029,CST-1368DR,4621,5108,11771,01.131,551
2022-08-10T11:59:28,42.805,6.029,CST-1368DR,4621,5109,11773,01.130,551
2022-08-10T12:02:30,42.805,6.029,CST-1368DR,4621,5104,11762,01.134,551
2022-08-10T12:05:31,42.805,6.029,CST-1368DR,4621,5108,11772,01.130,551
2022-08-10T12:08:33,42.805,6.029,CST-1368DR,4621,5107,11769,01.131,551
2022-08-10T12:11:35,42.805,6.029,CST-1368DR,4621,5109,11775,01.129,551
2022-08-10T12:14:36,42.805,6.029,CST-1368DR,4621,5108,11770,01.131,551
2022-08-10T12:17:38,42.805,6.029,CST-1368DR,4621,5109,11773,01.130,551
2022-08-10T12:20:39,42.805,6.029,CST-1368DR,4621,5109,11773,01.130,551
2022-08-10T12:23:41,42.805,6.029,CST-1368DR,4621,5109,11773,01.130,551
2022-08-10T12:26:43,42.805,6.029,CST-1368DR,4621,5109,11775,01.129,551
2022-08-10T12:29:44,42.805,6.029,CST-1368DR,4621,5108,11771,01.131,551
2022-08-10T12:32:46,42.805,6.029,CST-1368DR,4621,5111,11778,01.128,551
2022-08-10T12:35:47,42.805,6.029,CST-1368DR,4621,5112,11781,01.127,551
2022-08-10T12:38:49,42.805,6.029,CST-1368DR,4621,5111,11779,01.128,551
2022-08-10T12:41:50,42.805,6.029,CST-1368DR,4621,5108,11772,01.130,551
2022-08-10T12:44:52,42.805,6.029,CST-1368DR,4621,5108,11770,01.131,551
2022-08-10T12:47:54,42.805,6.029,CST-1368DR,4621,5109,11773,01.130,551
2022-08-10T12:50:55,42.805,6.029,CST-1368DR,4621,5107,11769,01.131,551
2022-08-10T12:53:57,42.805,6.029,CST-1368DR,4621,5108,11772,01.130,551
2022-08-10T12:56:58,42.805,6.029,CST-1368DR,4621,5109,11773,01.130,551
2022-08-10T13:00:00,42.805,6.029,CST-1368DR,4621,5108,11770,01.131,551
2022-08-10T13:03:02,42.805,6.029,CST-1368DR,4621,5110,11776,01.129,551
2022-08-10T13:06:03,42.805,6.029,CST-1368DR,4621,5109,11773,01.130,551
2022-08-10T13:09:05,42.805,6.029,CST-1368DR,4621,5107,11770,01.131,551
2022-08-10T13:12:06,42.805,6.029,CST-1368DR,4621,5108,11770,01.131,551
2022-08-10T13:15:08,42.805,6.029,CST-1368DR,4621,5107,11770,01.131,551
2022-08-10T13:18:09,42.805,6.029,CST-1368DR,4621,5111,11778,01.128,551
2022-08-10T13:21:11,42.805,6.029,CST-1368DR,4621,5107,11768,01.132,551
2022-08-10T13:24:13,42.805,6.029,CST-1368DR,4621,5107,11768,01.132,551
2022-08-10T13:27:14,42.805,6.029,CST-1368DR,4621,5111,11778,01.128,551
2022-08-10T13:30:16,42.805,6.029,CST-1368DR,4621,5108,11771,01.131,551
2022-08-10T13:33:17,42.805,6.029,CST-1368DR,4621,5107,11769,01.131,551
2022-08-10T13:36:19,42.805,6.029,CST-1368DR,4621,5109,11773,01.130,551
2022-08-10T13:39:20,42.805,6.029,CST-1368DR,4621,5110,11776,01.129,551
2022-08-10T13:42:22,42.805,6.029,CST-1368DR,4621,5108,11771,01.131,551
2022-08-10T13:45:24,42.805,6.029,CST-1368DR,4621,5112,11780,01.128,551
2022-08-10T13:48:25,42.805,6.029,CST-1368DR,4621,5108,11772,01.130,551
2022-08-10T13:51:27,42.805,6.029,CST-1368DR,4621,5108,11772,01.130,551
2022-08-10T13:54:28,42.805,6.029,CST-1368DR,4621,5108,11771,01.131,551
2022-08-10T13:57:30,42.805,6.029,CST-1368DR,4621,5109,11773,01.130,551
2022-08-10T14:00:32,42.805,6.029,CST-1368DR,4621,5108,11771,01.131,551
2022-08-10T14:03:33,42.805,6.029,CST-1368DR,4621,5113,11784,01.126,551
2022-08-10T14:06:35,42.805,6.029,CST-1368DR,4621,5114,11784,01.126,551
2022-08-10T14:09:36,42.805,6.029,CST-1368DR,4621,5113,11784,01.126,551
2022-08-10T14:12:38,42.805,6.029,CST-1368DR,4621,5112,11781,01.127,551
2022-08-10T14:15:39,42.805,6.029,CST-1368DR,4621,5114,11785,01.126,551
2022-08-10T14:18:41,42.805,6.029,CST-1368DR,4621,5109,11773,01.130,551
2022-08-10T14:21:43,42.805,6.029,CST-1368DR,4621,5109,11773,01.130,551
2022-08-10T14:24:44,42.805,6.029,CST-1368DR,4621,5113,11784,01.126,551
2022-08-10T14:27:46,42.805,6.029,CST-1368DR,4621,5114,11785,01.126,551
2022-08-10T14:30:47,42.805,6.029,CST-1368DR,4621,5114,11785,01.126,551
2022-08-10T14:33:49,42.805,6.029,CST-1368DR,4621,5114,11786,01.126,551
2022-08-10T14:36:50,42.805,6.029,CST-1368DR,4621,5115,11787,01.125,551
2022-08-10T14:39:52,42.805,6.029,CST-1368DR,4621,5114,11785,01.126,551
2022-08-10T14:42:54,42.805,6.029,CST-1368DR,4621,5115,11787,01.125,551
2022-08-10T14:45:55,42.805,6.029,CST-1368DR,4621,5114,11785,01.126,551
2022-08-10T14:48:57,42.805,6.029,CST-1368DR,4621,5116,11789,01.125,551
2022-08-10T14:51:58,42.805,6.029,CST-1368DR,4621,5115,11787,01.125,551
2022-08-10T14:55:00,42.805,6.029,CST-1368DR,4621,5108,11770,01.131,551
2022-08-10T14:58:02,42.805,6.029,CST-1368DR,4621,5110,11776,01.129,551
2022-08-10T15:01:03,42.805,6.029,CST-1368DR,4621,5115,11787,01.125,551
2022-08-10T15:04:05,42.805,6.029,CST-1368DR,4621,5115,11788,01.125,551
2022-08-10T15:07:06,42.805,6.029,CST-1368DR,4621,5115,11787,01.125,551
2022-08-10T15:10:08,42.805,6.029,CST-1368DR,4621,5115,11788,01.125,551
2022-08-10T15:13:09,42.805,6.029,CST-1368DR,4621,5116,11789,01.125,551
2022-08-10T15:16:11,42.805,6.029,CST-1368DR,4621,5116,11789,01.125,551
2022-08-10T15:19:13,42.805,6.029,CST-1368DR,4621,5115,11787,01.125,551
2022-08-10T15:22:14,42.805,6.029,CST-1368DR,4621,5113,11783,01.127,551
2022-08-10T15:25:16,42.805,6.029,CST-1368DR,4621,5115,11787,01.125,551
2022-08-10T15:28:17,42.805,6.029,CST-1368DR,4621,5109,11775,01.129,551
2022-08-10T15:31:19,42.805,6.029,CST-1368DR,4621,5111,11777,01.129,551
2022-08-10T15:34:20,42.805,6.029,CST-1368DR,4621,5113,11783,01.127,551
2022-08-10T15:37:22,42.805,6.029,CST-1368DR,4621,5110,11776,01.129,551
2022-08-10T15:40:24,42.805,6.029,CST-1368DR,4621,5111,11779,01.128,551
2022-08-10T15:43:25,42.805,6.029,CST-1368DR,4621,5109,11773,01.130,551
2022-08-10T15:46:27,42.805,6.029,CST-1368DR,4621,5109,11773,01.130,551
2022-08-10T15:49:28,42.805,6.029,CST-1368DR,4621,5109,11773,01.130,551
2022-08-10T15:52:30,42.805,6.029,CST-1368DR,4621,5110,11775,01.129,551
2022-08-10T15:55:32,42.805,6.029,CST-1368DR,4621,5107,11769,01.131,551
2022-08-10T15:58:33,42.805,6.029,CST-1368DR,4621,5106,11766,01.132,551
2022-08-10T16:01:35,42.805,6.029,CST-1368DR,4621,5105,11764,01.133,551
2022-08-10T16:04:36,42.805,6.029,CST-1368DR,4621,5104,11762,01.134,551
2022-08-10T16:07:38,42.805,6.029,CST-1368DR,4621,5104,11763,01.133,551
2022-08-10T16:10:39,42.805,6.029,CST-1368DR,4621,5106,11767,01.132,551
2022-08-10T16:13:41,42.805,6.029,CST-1368DR,4621,5106,11768,01.132,551
2022-08-10T16:16:43,42.805,6.029,CST-1368DR,4621,5106,11767,01.132,551
2022-08-10T16:19:44,42.805,6.029,CST-1368DR,4621,5105,11765,01.133,551
2022-08-10T16:22:46,42.805,6.029,CST-1368DR,4621,5107,11769,01.131,551
2022-08-10T16:25:47,42.805,6.029,CST-1368DR,4621,5108,11771,01.131,551
2022-08-10T16:28:49,42.805,6.029,CST-1368DR,4621,5109,11773,01.130,551
2022-08-10T16:31:50,42.805,6.029,CST-1368DR,4621,5108,11772,01.130,551
2022-08-10T16:34:52,42.805,6.029,CST-1368DR,4621,5110,11776,01.129,551
2022-08-10T16:37:54,42.805,6.029,CST-1368DR,4621,5109,11773,01.130,551